THOR ABLESTAR DEB, 4028

Orbit data source: Space-Track

THOR ABLESTAR DEB, 4028 is space debris in LEO originally from a launch on Thu, 29 Jun 1961 UTC launched from the Air Force Eastern Test Range (AFETR). Debris objects in space refer to the collection of defunct objects orbiting the Earth. Examples of debris include non-operational satellites, rocket bodies, and fragments generated from explosions, collisions, or faulty payload assembly.

Loading next visibility...
Identifier
4028, 1961-015JQ
Orbit
LEO
Country
Flag of USUS
Related business
Manufacturer
Unknown
Mission
Spacecraft
Bus & Motor
Unknown
Mass
Unknown
Launch date (UTC)
1961-06-29 (65 years ago)
Launch vehicle
Unknown
Launch site
Air Force Eastern Test Range (AFETR)
Object type
Payload
Rocket body
Debris
Shape & HBR
Unknown shape, 0.1 m
Radar Cross Section
Small (<0.1 m²)

Expand to show TLE details & history
Last TLE update: 16 hours ago

TLE from 16 hours ago
0 THOR ABLESTAR DEB
1 04028U 61015JQ  26177.78222152  .00000925  00000-0  18898-3 0  9992
2 04028  66.7512 312.9042 0094736 342.7862  17.0046 14.63078536375225
Epoch: 2026-06-26T18:46Z
TLE epoch observation values (Epoch: 2026-06-26T18:46:23.939Z)
Latitude
-0.00001°
Longitude
116.39866°
Altitude
621.47 km
Speed
7.583 km/s
True Right ascension
20h 51m 37s
True Declination
0° 00' 00"
Sunlit
Object was in full shadow at epoch
Visualization orbit readout
Latitude
Unknown
Longitude
Unknown
Altitude
Unknown
Speed
Unknown
Apparent Right ascension
Unknown
Apparent Declination
Unknown
Sunlit
N/A
Visualization observer readout
Local Sidereal Time
21:48:17
Azimuth
Unknown
Elevation
Unknown
Doppler factor
Unknown
Orbital elements
Apogee altitude
748.476 km
Perigee altitude
614.714 km
Semi-major axis
7,059.732 km
Eccentricity
0.00947
Inclination
66.7512°
RAAN
312.9042°
Arg. of periapsis
342.7862°
True anomaly
17.32571°
Mean anomaly
17.0046°
Eccentric anomaly
17.16479°
Mean motion
3.65899 °/min
Orbital period
98.39 mins
BSTAR
0.00018898
Loading maneuver chart data...
Computing Atmospheric mass density...

Documentation

Showing up to 5 results
|